Regional Weather Roundup
Issued by NWS

Home | Current Version | Previous Version | Text Only | Print | Product List | Glossary Off
Versions: 1 2 3 4 5 6 7 8 9 10 11 12 13 14 15 16 17 18 19 20 21 22 23 24 25 26 27 28 29 30 31 32 33 34 35 36 37 38 39 40 41 42 43 44 45 46 47 48 49 50

000
ASUS44 KMEG 312310
RWRTN
TENNESSEE HOURLY STATE WEATHER ROUNDUP
NATIONAL WEATHER SERVICE MEMPHIS TN
600 PM CDT THU JUL 31 2014

TNZ002-004-019-021-049-052-054-088>092-010000-
WEST TENNESSEE

CITY           SKY/WX    TMP DP  RH WIND       PRES   REMARKS
MEMPHIS INTL   CLOUDY    77  63  61 N5        30.07S
NWS MEMPHIS      N/A     76 N/A N/A MISG        N/A
JACKSON        CLOUDY    79  62  56 N6        30.07S
DYERSBURG      PTSUNNY   77  61  57 NW6       30.08F
UNION CITY     SUNNY     75  66  73 CALM      30.07S
PARIS          PTSUNNY   74  64  70 W3        30.08S
LEXINGTON      MOSUNNY   77  63  61 N5        30.06S
SAVANNAH       PTSUNNY   81  63  54 CALM      30.07S
$$

TNZ008-025-027-028-033-062-065-066-010000-
NORTH MIDDLE TENNESSEE

CITY           SKY/WX    TMP DP  RH WIND       PRES   REMARKS
NASHVILLE      PTSUNNY   83  56  39 NE3       30.06S
DICKSON        PTSUNNY   79  59  50 W6        30.07F
PORTLAND       MOSUNNY   81  54  39 CALM      30.06F
CLARKSVILLE    CLOUDY    83  57  41 W7        30.05F
LEBANON        CLOUDY    82  54  38 E3        30.05S
SMYRNA         PTSUNNY   84  62  47 SE6       30.06F
MURFREESBORO   PTSUNNY   81  57  43 VRB3      30.05F
COOKEVILLE     SUNNY     81  64  57 CALM      30.08F
LIVINGSTON       N/A     77  54  44 N5        30.10S
GALLATIN       PTSUNNY   83  58  42 CALM      30.07S
CROSSVILLE     MOSUNNY   78  59  51 N5        30.12F
$$

TNZ061-075-076-078-094-096-097-010000-
SOUTH MIDDLE TENNESSEE

CITY           SKY/WX    TMP DP  RH WIND       PRES   REMARKS
LEWISBURG      PTSUNNY   83  56  39 N3        30.06F
FAYETTEVILLE   SUNNY     79  55  44 NE7       30.07F
TULLAHOMA      SUNNY     79  57  47 N6        30.09S
WINCHESTER     MOSUNNY   81  57  44 NE3       30.08S
MCMINNVILLE    MOSUNNY   81  59  47 NE6       30.08F
COLUMBIA       SUNNY     84  61  45 N3        30.05F
SHELBYVILLE    SUNNY     81  61  50 NE5       30.08S
$$

TNZ017-018-042-046-047-010000-
NORTHEAST TENNESSEE

CITY           SKY/WX    TMP DP  RH WIND       PRES   REMARKS
TRI CITIES     PTSUNNY   76  58  53 SE6       30.12S
ELIZABETHTON   PTCLDY    72  61  68 E6        30.14S
$$

TNZ012-013-036-069-073-074-010000-
CENTRAL EAST TENNESSEE

CITY           SKY/WX    TMP DP  RH WIND       PRES   REMARKS
KNOXVILLE      CLOUDY    79  62  56 E6        30.07F
OAK RIDGE      PTSUNNY   81  58  45 CALM      30.09S
GATLINBURG     MOCLDY    75  64  69 CALM      30.08F
MORRISTOWN     PTCLDY    73  66  78 SE5       30.12R
$$

TNZ083-085-099-010000-
SOUTHEAST TENNESSEE

CITY           SKY/WX    TMP DP  RH WIND       PRES   REMARKS
CHATTANOOGA    CLOUDY    79  64  60 E5        30.07F
$$

SKY/WX REPORTED AS FAIR MEANS FEW OR NO CLOUDS BELOW
12 THOUSAND FEET.




USA.gov is the U.S. government's official web portal to all federal, state and local government web resources and services.